Theta_e
314 317 318 317 316 312 316 318 315 317 317 315 315 315 316 314 315 315 322 326 329 330 336 340 342 342 341 341 340 338 338 337 336 335 336 336 337 339 333 334 333 333 332 334 331 328 325 324 329
316 318 317 309 312 314 315 313 317 317 316 314 315 315 316 317 315 319 323 327 329 333 335 338 340 343 343 342 341 340 339 338 337 336 334 334 334 331 332 334 333 332 331 332 331 325 322 323 323
318 316 311 310 308 313 314 313 315 315 314 315 315 314 315 317 316 320 322 326 328 332 334 337 340 343 343 342 342 341 340 338 337 335 332 331 330 331 335 335 333 331 329 330 330 323 320 320 322
317 312 307 310 316 314 313 313 312 315 315 314 313 315 312 315 316 321 325 327 327 331 333 335 339 342 341 341 341 340 340 337 335 334 336 336 332 335 336 334 332 330 328 328 328 324 319 315 315
312 306 311 313 315 314 310 313 312 315 314 315 314 315 313 314 322 324 325 326 327 330 334 334 337 340 341 341 341 340 340 337 338 336 339 337 334 331 333 334 331 330 327 327 327 324 319 313 309
311 305 311 313 314 312 311 309 313 313 311 313 314 313 313 316 320 322 324 325 326 328 332 334 335 338 340 341 341 340 339 337 338 336 337 336 334 331 330 329 331 329 328 327 326 323 316 308 301
311 306 310 312 313 313 313 307 312 312 311 314 312 314 312 314 316 319 322 323 325 329 332 333 334 336 338 340 340 340 339 337 337 336 336 335 335 332 330 329 324 327 328 327 325 322 314 302 299
307 307 313 311 312 315 312 311 311 312 313 309 311 311 312 311 315 316 322 323 324 328 333 334 334 335 337 338 339 339 338 336 337 337 336 335 335 332 331 331 328 323 324 326 325 322 313 301 299
306 307 308 312 311 314 313 313 312 309 310 310 311 311 310 313 316 318 321 324 325 325 328 333 335 335 337 338 339 339 338 336 336 336 335 336 335 332 332 331 330 326 323 323 323 321 313 302 299
307 305 308 309 312 315 313 313 312 312 310 312 310 309 311 311 313 314 312 311 311 314 321 326 331 335 336 343 342 339 338 337 335 333 333 336 335 331 330 331 329 327 324 323 322 320 313 304 299
311 309 309 313 312 313 313 312 311 312 313 310 311 308 305 303 304 304 304 304 304 306 308 313 322 331 335 342 336 336 338 337 333 333 332 332 332 332 331 329 327 326 325 323 320 318 315 308 300
315 314 312 314 313 313 314 312 312 311 311 308 306 303 302 301 301 302 302 303 304 306 307 308 312 321 330 337 338 334 335 338 333 332 333 333 332 330 330 329 327 327 325 324 322 319 316 311 303
315 314 312 312 310 310 310 311 312 310 307 303 303 302 300 300 300 301 300 301 302 304 306 309 310 310 320 330 338 338 334 334 336 333 331 333 331 330 330 329 327 326 325 323 322 319 316 313 309
310 311 310 309 310 310 311 310 310 307 304 303 302 300 299 299 298 298 299 299 301 304 307 310 315 313 310 320 331 336 337 336 333 332 334 333 332 330 329 328 326 326 325 324 323 318 316 314 312
311 311 308 309 309 309 308 312 310 309 302 301 301 299 299 298 297 296 297 298 301 304 308 313 318 318 311 317 326 331 332 332 333 332 331 332 331 330 327 328 325 325 325 324 322 320 317 315 313
310 308 310 310 310 310 310 313 312 304 304 302 300 299 298 297 296 296 297 299 301 305 308 313 319 322 323 324 327 329 330 330 329 329 329 330 330 330 329 329 328 327 325 323 322 320 318 316 314
306 310 309 309 309 311 310 311 310 303 303 301 299 298 297 296 295 295 295 297 299 301 305 310 317 322 323 325 325 324 325 325 324 325 325 325 325 324 324 325 325 324 324 322 322 320 319 317 314
310 310 309 309 310 310 310 310 307 301 301 300 298 297 296 296 295 294 294 296 298 301 304 307 312 316 320 320 320 320 319 318 318 318 319 321 321 322 321 320 319 318 317 317 317 315 316 316 313
308 309 310 309 309 311 310 308 305 302 301 300 298 297 296 295 294 293 293 294 296 298 301 303 307 308 314 316 313 311 308 307 311 313 314 314 314 316 316 316 315 314 313 312 312 311 310 310 309
309 310 310 309 309 310 309 308 304 302 301 300 298 297 296 295 293 292 292 293 294 295 296 301 303 306 307 308 306 304 302 301 301 303 305 306 307 309 309 309 310 311 311 310 309 309 307 306 305
309 309 310 312 309 307 306 307 306 302 300 299 298 297 296 294 293 291 291 291 293 294 295 296 298 301 303 304 305 304 302 301 300 298 298 297 299 300 301 301 301 302 303 304 305 305 304 303 303
312 309 310 312 310 313 306 312 307 303 301 300 298 296 295 293 292 291 290 290 290 291 293 294 296 297 298 299 300 298 294 290 289 289 290 290 291 292 294 296 296 297 297 298 298 299 301 301 300
314 308 308 308 308 308 309 309 307 303 303 301 298 296 294 293 291 290 289 289 289 289 289 290 291 292 292 293 293 291 288 287 287 287 287 287 286 286 286 286 287 289 291 293 294 296 296 296 297
305 308 306 304 305 310 309 309 309 306 305 301 298 296 295 293 291 290 289 288 288 288 288 288 287 287 287 288 287 287 286 286 286 285 285 285 286 286 285 285 285 285 285 285 285 287 290 292 294
308 311 315 311 310 313 307 307 308 307 304 301 300 297 294 293 291 289 289 287 287 288 287 287 287 286 286 286 286 285 285 285 285 285 285 285 285 285 285 285 285 285 285 285 285 285 285 285 285
309 311 314 310 311 311 308 314 313 303 300 300 299 296 294 292 291 290 289 287 287 287 287 287 286 285 286 286 286 286 286 286 285 285 285 285 285 284 285 285 284 284 284 284 284 284 284 284 284
309 311 308 309 301 309 310 308 305 301 300 298 297 295 294 292 291 290 290 288 286 286 286 286 286 286 286 286 286 286 286 286 286 286 286 285 284 284 283 283 283 283 283 283 283 283 283 283 283
310 308 314 309 308 306 307 309 307 305 302 299 298 296 294 293 292 289 289 289 287 286 286 286 286 286 286 286 287 286 286 286 286 286 285 284 283 283 283 282 282 282 281 281 281 281 281 281 281
311 312 309 309 305 304 302 305 303 305 302 300 299 297 295 294 292 289 289 289 288 287 286 286 286 286 286 287 287 287 286 286 286 286 285 284 283 282 282 281 280 280 279 279 279 279 279 279 279
308 310 311 312 310 306 307 310 303 303 301 300 299 297 294 293 292 290 290 289 288 287 286 286 286 286 287 287 287 287 286 286 286 286 285 284 282 281 280 280 279 278 278 278 278 278 278 278 278
Wind_Speed
8 7 4 4 4 5 1 1 1 2 1 1 2 3 2 3 3 3 5 11 2 15 26 24 22 19 18 15 13 12 9 8 8 7 7 8 9 7 5 6 8 6 6 7 7 7 6 6 6
8 4 3 2 5 4 4 3 2 2 0 1 2 2 2 1 1 5 2 11 1 14 24 24 23 20 17 13 11 10 9 8 7 6 6 6 6 5 5 5 5 6 7 6 7 5 5 4 3
4 4 3 4 3 4 4 4 2 3 1 2 1 0 3 1 1 2 2 10 5 14 19 22 22 20 17 13 12 11 9 8 7 6 6 5 6 6 5 5 1 2 3 3 5 2 2 2 1
2 5 4 4 2 1 2 3 2 3 2 3 1 2 3 1 1 3 1 10 7 12 16 21 22 21 19 17 16 13 12 9 6 7 7 6 8 8 8 7 3 2 4 2 3 3 2 2 2
5 3 4 4 2 3 3 2 1 2 2 1 1 2 3 2 3 1 2 7 5 9 13 18 23 22 21 21 18 16 15 12 9 8 12 9 7 6 6 6 6 4 4 3 4 5 4 4 3
4 3 5 1 3 4 3 3 2 1 3 3 1 1 3 4 0 1 2 2 4 8 12 15 21 23 23 23 21 19 16 15 13 11 11 11 10 7 6 8 11 7 4 4 5 7 6 6 4
6 4 4 3 2 3 2 6 3 0 3 2 1 3 3 6 5 0 3 3 4 7 12 14 17 22 23 23 22 20 18 19 16 14 15 14 12 9 7 4 2 3 4 4 6 8 7 4 2
5 4 3 2 2 2 3 5 2 1 2 4 0 2 4 3 6 3 3 3 4 7 10 13 15 19 22 23 23 22 19 19 18 16 17 15 13 11 9 7 4 3 4 5 6 9 7 3 2
3 4 1 3 5 2 2 5 1 2 2 4 2 1 5 9 6 1 2 3 5 6 9 12 15 16 19 21 22 21 20 19 19 18 16 15 14 12 12 11 7 5 5 5 7 8 6 4 3
5 4 6 3 3 1 3 0 3 3 6 2 3 5 11 11 10 8 12 14 13 13 11 13 16 18 19 20 20 21 20 20 18 18 17 16 14 14 14 13 9 7 8 8 8 9 9 6 5
2 4 3 2 3 0 3 4 2 1 4 5 3 9 11 15 18 17 15 14 14 15 11 12 15 20 21 20 20 20 21 19 20 19 18 19 17 16 17 14 12 11 10 9 10 12 12 9 7
1 3 4 2 1 2 2 4 6 5 3 4 4 6 8 11 14 17 18 18 19 17 15 9 11 17 23 23 21 20 19 22 20 19 21 20 18 16 17 15 14 13 12 13 14 14 13 11 10
2 2 2 3 4 5 3 5 4 9 4 8 12 14 11 12 16 17 19 19 22 22 20 15 10 14 21 25 23 20 18 18 20 21 19 20 18 17 17 16 15 14 13 14 17 15 14 13 12
1 3 6 6 3 3 4 2 3 5 6 10 10 10 9 12 15 18 24 23 24 23 22 21 15 10 16 21 23 20 14 12 13 15 20 20 18 16 17 17 16 16 14 15 14 14 15 15 14
2 5 6 4 1 4 6 2 6 1 9 9 9 7 8 10 18 18 19 21 22 22 21 21 19 12 2 10 13 15 12 9 9 9 10 14 16 18 17 20 19 17 15 15 14 15 16 16 17
3 4 4 2 2 2 3 7 4 9 9 8 8 8 8 11 13 18 19 20 22 24 25 22 20 16 12 5 4 2 1 1 3 6 7 9 14 18 20 17 17 17 14 15 13 14 17 17 18
5 3 4 7 3 1 2 7 1 12 8 7 7 7 7 8 17 22 19 20 22 25 27 27 27 25 22 20 20 17 15 14 13 11 12 11 9 8 9 11 12 13 14 15 13 15 15 17 17
6 4 4 5 1 4 3 9 5 10 10 7 7 7 7 10 12 18 20 20 22 25 27 30 28 29 28 28 27 27 26 25 23 22 20 16 16 14 11 10 11 10 9 11 13 14 14 14 16
5 4 5 3 3 2 6 6 4 5 7 7 6 6 6 8 10 17 22 24 27 30 31 31 31 29 25 24 28 29 29 28 29 26 23 22 21 20 19 17 16 15 12 11 9 10 12 12 13
3 3 5 5 2 4 4 6 4 5 3 4 6 6 6 5 7 16 21 27 30 29 30 32 31 28 29 30 26 24 27 28 27 25 24 22 20 20 20 19 18 17 15 13 13 12 10 9 11
4 6 5 6 2 0 5 5 4 3 4 5 4 3 4 5 6 8 16 23 26 30 31 32 32 30 24 23 22 20 22 24 24 26 25 25 22 20 19 17 17 17 17 16 14 11 9 7 10
4 7 5 4 3 3 2 5 4 4 4 4 6 5 5 5 5 8 13 18 22 24 27 30 31 31 29 28 29 30 31 30 27 27 26 28 28 28 27 23 20 20 19 17 16 15 12 9 8
5 4 6 3 3 3 2 1 6 4 3 5 6 5 5 5 6 6 9 13 15 19 24 27 30 30 29 30 30 32 34 30 27 27 27 27 28 29 29 29 29 27 24 22 21 19 18 14 13
8 5 6 5 3 0 5 6 4 4 3 5 4 6 6 6 5 7 10 11 14 17 22 24 28 28 28 29 29 30 29 27 27 26 26 26 25 26 26 25 25 25 26 25 24 21 20 19 17
3 5 1 3 2 5 1 2 8 5 3 7 13 10 8 7 6 6 8 9 11 14 18 21 24 26 26 27 27 26 26 25 25 24 23 23 24 24 24 23 23 23 22 21 22 22 20 20 20
5 6 5 7 3 3 2 5 5 2 3 6 11 10 8 7 6 5 8 10 12 14 15 18 20 23 22 23 23 22 21 22 22 21 20 20 20 20 20 20 21 21 20 21 22 21 20 20 19
4 3 2 6 2 1 4 5 2 2 1 4 9 9 9 8 7 8 11 11 11 12 13 15 17 19 19 19 19 18 18 18 18 18 17 18 18 19 19 20 21 21 21 22 22 22 22 21 21
4 6 4 3 1 5 4 4 5 5 7 6 8 9 8 8 8 7 12 12 11 12 12 13 14 16 16 16 15 15 15 15 15 15 17 17 17 18 20 21 22 23 24 25 26 26 26 25 26
3 3 4 4 4 5 2 5 5 6 10 13 12 11 9 9 8 8 14 14 13 13 13 13 13 13 13 12 11 10 10 11 12 15 17 18 19 21 23 25 28 29 30 31 30 30 29 29 29
2 6 7 5 5 2 1 7 2 3 10 13 12 10 8 7 9 12 17 17 17 17 16 14 13 12 10 8 6 6 7 9 12 14 16 18 19 22 25 27 29 31 32 32 32 33 33 32 31
Wind_Direction
339 336 345 42 59 67 337 279 259 324 18 209 124 127 157 174 153 202 333 180 130 175 177 178 176 181 184 182 182 180 177 171 159 148 141 137 137 141 123 99 88 75 68 58 55 60 68 84 98
339 338 42 74 84 66 280 264 230 222 215 125 114 90 60 317 241 285 12 182 129 177 180 182 182 184 190 189 196 194 186 183 174 164 158 156 153 154 134 113 79 61 54 52 49 55 67 72 86
337 11 81 93 105 152 190 232 238 309 1 58 83 85 149 281 263 261 290 183 177 182 188 190 188 189 189 182 197 200 197 197 190 181 171 171 173 168 149 139 201 289 19 30 35 30 56 68 93
354 20 40 78 112 228 213 323 255 338 32 37 80 45 318 254 298 296 296 183 178 181 193 197 196 195 193 193 197 199 213 209 209 204 182 190 184 173 172 176 161 274 343 36 8 322 324 317 267
43 54 54 77 302 281 287 349 106 336 320 342 355 327 292 357 331 30 96 174 200 192 193 199 202 203 201 200 205 208 212 202 200 217 191 206 204 200 205 211 211 254 315 329 325 308 310 311 287
41 89 61 146 274 302 307 8 329 42 307 321 52 30 269 328 184 75 140 177 206 206 203 203 208 211 211 210 213 215 216 202 208 214 214 227 237 237 244 257 244 266 276 278 296 300 309 312 301
105 78 165 172 261 331 303 330 72 233 315 326 269 354 290 42 350 302 210 211 223 210 213 213 214 215 218 220 221 223 223 210 212 211 219 232 234 243 244 292 307 221 261 275 284 298 311 313 300
103 93 116 244 192 235 323 358 161 94 290 304 245 322 323 339 354 228 217 238 233 226 228 231 229 224 223 223 226 228 228 221 216 221 225 233 239 247 248 276 306 272 233 261 277 295 311 304 280
114 60 165 222 156 221 324 22 290 316 292 341 328 145 327 345 357 329 285 290 293 270 251 242 241 239 233 233 232 231 230 227 224 228 233 233 239 238 254 269 287 302 271 256 263 290 301 278 263
84 108 219 212 199 251 326 144 319 15 350 289 321 343 354 341 356 1 11 354 335 315 293 271 251 242 237 233 233 235 233 230 233 235 233 233 238 247 249 266 273 290 287 288 271 288 283 274 263
144 182 206 255 236 302 303 305 188 144 288 234 335 312 1 31 42 41 38 25 1 352 309 272 262 251 241 235 233 235 233 233 239 242 243 244 246 247 253 253 266 282 287 287 278 280 294 290 273
68 237 189 285 133 66 282 313 307 173 221 97 59 53 45 29 28 22 14 8 4 2 359 332 265 245 243 237 231 233 235 229 228 244 240 242 247 252 246 246 260 268 282 292 285 282 284 285 277
175 264 206 264 275 253 326 244 249 272 36 78 77 55 42 30 20 22 17 13 8 4 360 354 323 262 239 237 232 224 227 237 238 233 245 244 249 253 252 250 257 263 279 297 286 279 280 281 279
273 303 290 286 222 231 218 283 162 72 98 77 64 55 41 35 20 19 17 13 12 6 4 2 357 313 246 232 233 230 223 231 244 253 248 246 250 258 263 251 260 263 277 290 286 280 281 282 281
6 334 322 263 300 200 157 250 224 64 84 79 60 56 57 38 29 21 19 21 19 22 19 15 16 14 280 221 235 239 245 257 265 275 275 269 263 253 255 251 254 264 269 277 284 281 281 285 287
43 55 347 312 360 3 151 259 264 46 70 66 51 38 36 30 29 31 31 33 35 36 37 40 41 50 64 95 140 170 197 307 320 320 310 291 268 253 248 251 256 263 266 261 269 278 279 281 286
7 230 208 314 26 145 90 267 289 8 44 81 57 40 35 24 24 23 34 39 42 47 49 54 60 68 82 93 98 98 92 80 66 56 40 24 7 330 299 286 279 272 270 256 264 263 262 273 285
199 214 241 239 356 26 338 274 344 18 73 79 64 46 38 39 19 18 40 50 54 58 61 64 71 81 83 89 88 84 79 74 64 54 48 41 35 27 15 5 352 338 308 284 265 258 261 276 290
136 173 213 261 200 218 241 260 1 48 67 74 67 61 52 44 16 39 50 56 61 62 63 62 67 72 86 87 79 75 74 71 67 62 56 49 44 42 39 34 27 21 19 3 350 328 313 313 309
157 171 246 279 283 184 306 280 67 42 56 104 116 92 73 53 24 28 47 61 65 66 68 70 71 72 76 80 85 87 80 74 74 68 62 57 54 50 45 39 35 30 25 21 16 8 348 338 333
202 185 193 215 336 337 332 290 189 64 106 90 71 87 71 74 56 22 38 59 64 66 66 69 71 72 80 92 100 98 88 78 66 58 55 51 49 49 49 50 47 41 33 27 19 11 0 344 326
214 206 163 169 128 228 30 283 288 185 154 144 141 128 111 75 61 43 50 62 67 72 78 78 77 77 76 79 82 81 81 77 72 68 64 59 56 52 46 42 41 40 38 32 26 14 360 340 320
216 117 143 127 116 67 293 244 258 117 221 215 196 164 145 138 120 95 69 76 77 79 81 83 84 83 83 83 84 85 84 84 80 74 68 61 55 53 50 47 45 43 40 32 22 17 15 7 341
144 81 46 45 92 292 226 178 269 186 213 168 176 183 173 167 143 128 116 103 90 89 88 89 87 85 84 83 84 84 84 80 73 67 63 57 52 48 45 42 41 38 35 33 34 31 21 10 1
112 106 326 341 357 231 107 164 243 166 176 190 181 183 183 182 174 154 128 112 104 99 97 96 93 89 87 85 82 81 79 75 71 64 57 51 45 40 34 33 32 30 26 23 20 18 19 19 11
179 165 162 216 205 260 316 232 271 306 304 218 164 163 170 181 185 178 149 142 128 117 110 102 101 99 94 89 86 83 78 73 68 59 52 47 41 34 27 24 22 20 17 11 8 6 4 2 358
187 185 156 103 55 30 233 274 260 82 48 124 149 160 183 183 192 182 174 166 146 131 121 118 113 104 98 95 92 84 77 69 61 53 44 37 28 22 16 14 10 7 4 0 356 350 347 343 341
140 157 85 4 201 261 271 272 239 221 203 173 178 203 203 194 183 183 187 177 164 150 142 138 125 116 109 103 94 85 73 61 51 39 31 24 16 10 5 1 358 356 352 348 345 341 337 332 328
137 175 68 123 144 183 278 248 208 212 177 187 203 208 202 200 183 188 192 189 180 171 165 153 142 132 124 113 101 84 67 50 36 25 17 9 2 358 355 352 348 347 345 342 340 337 333 328 326
169 183 157 162 216 254 195 257 24 252 175 182 203 207 202 188 190 193 194 191 191 188 181 176 164 154 142 128 109 77 46 24 12 6 0 354 350 348 346 343 342 342 341 338 336 332 330 326 322